Time,TemperatureF,DewpointF,PressureIn,WindDirection,WindDirectionDegrees,WindSpeedMPH,WindSpeedGustMPH,Humidity,HourlyPrecipIn,Conditions,Clouds,dailyrainin,SoftwareType,DateUTC
2013-03-14 17:53:00,52.9,21.5,30.06,WSW,258,5.0,5.0,29,0.00,,CLR,0.00,VWS V14.00,2013-03-14 21:53:00,
2013-03-14 17:54:00,53.0,21.6,30.06,West,269,4.0,5.0,29,0.00,,CLR,0.00,VWS V14.00,2013-03-14 21:54:00,
2013-03-14 17:59:00,53.2,21.8,30.05,WSW,242,2.0,7.0,29,0.00,,CLR,0.00,VWS V14.00,2013-03-14 21:59:00,
2013-03-14 18:04:00,53.5,22.0,30.05,SW,232,4.0,12.0,29,0.00,,CLR,0.00,VWS V14.00,2013-03-14 22:04:00,
2013-03-14 18:09:00,53.1,21.7,30.05,West,267,6.0,12.0,29,0.00,,CLR,0.00,VWS V14.00,2013-03-14 22:09:00,
2013-03-14 18:14:00,52.8,20.6,30.05,NW,312,10.0,14.0,28,0.00,,CLR,0.00,VWS V14.00,2013-03-14 22:14:00,
2013-03-14 18:19:00,52.5,21.2,30.05,WSW,245,7.0,16.0,29,0.00,,CLR,0.00,VWS V14.00,2013-03-14 22:19:00,
2013-03-14 18:24:00,52.3,19.3,30.05,WSW,247,6.0,16.0,27,0.00,,CLR,0.00,VWS V14.00,2013-03-14 22:24:00,
2013-03-14 18:29:00,52.1,20.0,30.05,West,276,6.0,13.0,28,0.00,,CLR,0.00,VWS V14.00,2013-03-14 22:29:00,
2013-03-14 18:34:00,52.0,19.9,30.05,West,262,4.0,16.0,28,0.00,,CLR,0.00,VWS V14.00,2013-03-14 22:34:00,
2013-03-14 18:39:00,51.8,19.8,30.05,SW,216,3.0,16.0,28,0.00,,CLR,0.00,VWS V14.00,2013-03-14 22:39:00,
2013-03-14 18:44:00,51.7,20.5,30.05,WSW,255,1.0,16.0,29,0.00,,CLR,0.00,VWS V14.00,2013-03-14 22:44:00,
2013-03-14 18:49:00,51.7,19.7,30.05,West,260,3.0,16.0,28,0.00,,CLR,0.00,VWS V14.00,2013-03-14 22:49:00,
2013-03-14 18:54:00,51.5,20.3,30.05,WSW,254,5.0,16.0,29,0.00,,CLR,0.00,VWS V14.00,2013-03-14 22:54:00,
2013-03-14 18:59:00,51.4,20.2,30.05,West,270,5.0,5.0,29,0.00,,CLR,0.00,VWS V14.00,2013-03-14 22:59:00,
2013-03-14 19:04:00,51.5,20.3,30.05,West,271,0.0,7.0,29,0.00,,CLR,0.00,VWS V14.00,2013-03-14 23:04:00,
2013-03-14 19:09:00,51.4,20.2,30.05,West,280,4.0,12.0,29,0.00,,CLR,0.00,VWS V14.00,2013-03-14 23:09:00,
2013-03-14 19:14:00,51.1,20.8,30.05,WNW,290,0.0,12.0,30,0.00,,CLR,0.00,VWS V14.00,2013-03-14 23:14:00,
2013-03-14 19:19:00,50.7,18.8,30.05,West,273,2.0,12.0,28,0.00,,CLR,0.00,VWS V14.00,2013-03-14 23:19:00,
2013-03-14 19:24:00,50.4,19.4,30.05,WSW,251,0.0,12.0,29,0.00,,CLR,0.00,VWS V14.00,2013-03-14 23:24:00,
2013-03-14 19:29:00,50.0,19.0,30.05,SW,225,1.0,1.0,29,0.00,,CLR,0.00,VWS V14.00,2013-03-14 23:29:00,
2013-03-14 19:34:00,49.9,18.9,30.05,WSW,253,3.0,4.0,29,0.00,,CLR,0.00,VWS V14.00,2013-03-14 23:34:00,
2013-03-14 19:39:00,49.6,19.5,30.05,West,269,3.0,4.0,30,0.00,,CLR,0.00,VWS V14.00,2013-03-14 23:39:00,
2013-03-14 19:44:00,49.3,19.2,30.06,West,264,0.0,5.0,30,0.00,,CLR,0.00,VWS V14.00,2013-03-14 23:44:00,
2013-03-14 19:49:00,48.9,18.9,30.06,West,259,0.0,6.0,30,0.00,,CLR,0.00,VWS V14.00,2013-03-14 23:49:00,
2013-03-14 19:54:00,48.5,18.5,30.06,WSW,255,0.0,6.0,30,0.00,,CLR,0.00,VWS V14.00,2013-03-14 23:54:00,
2013-03-14 19:59:00,47.8,19.4,30.06,WSW,255,0.0,0.0,32,0.00,,CLR,0.00,VWS V14.00,2013-03-14 23:59:00,
2013-03-14 20:04:00,47.2,19.6,30.06,WSW,255,0.0,1.0,33,0.00,,CLR,0.00,VWS V14.00,2013-03-15 00:04:00,
2013-03-14 20:09:00,46.7,19.1,30.06,WSW,255,0.0,1.0,33,0.00,,CLR,0.00,VWS V14.00,2013-03-15 00:09:00,
2013-03-14 20:14:00,46.4,18.9,30.07,WSW,255,0.0,1.0,33,0.00,,CLR,0.00,VWS V14.00,2013-03-15 00:14:00,
2013-03-14 20:19:00,46.1,19.3,30.07,WSW,255,0.0,1.0,34,0.00,,CLR,0.00,VWS V14.00,2013-03-15 00:19:00,
2013-03-14 20:24:00,46.1,18.6,30.07,WSW,255,0.0,1.0,33,0.00,,CLR,0.00,VWS V14.00,2013-03-15 00:24:00,
2013-03-14 20:29:00,46.0,19.2,30.06,WSW,255,0.0,0.0,34,0.00,,CLR,0.00,VWS V14.00,2013-03-15 00:29:00,
2013-03-14 20:34:00,45.9,19.8,30.06,WSW,255,0.0,0.0,35,0.00,,CLR,0.00,VWS V14.00,2013-03-15 00:34:00,
2013-03-14 20:39:00,45.7,18.3,30.06,WSW,255,0.0,0.0,33,0.00,,CLR,0.00,VWS V14.00,2013-03-15 00:39:00,
2013-03-14 20:44:00,45.8,19.0,30.06,WSW,255,0.0,0.0,34,0.00,,CLR,0.00,VWS V14.00,2013-03-15 00:44:00,
2013-03-14 20:49:00,45.8,18.4,30.06,WSW,255,0.0,1.0,33,0.00,,CLR,0.00,VWS V14.00,2013-03-15 00:49:00,
2013-03-14 20:54:00,45.9,17.7,30.06,SW,217,3.0,5.0,32,0.00,,CLR,0.00,VWS V14.00,2013-03-15 00:54:00,
2013-03-14 20:59:00,46.1,17.9,30.07,SSW,212,0.0,4.0,32,0.00,,CLR,0.00,VWS V14.00,2013-03-15 00:59:00,
2013-03-14 21:04:00,46.1,17.9,30.07,SW,231,1.0,4.0,32,0.00,,CLR,0.00,VWS V14.00,2013-03-15 01:04:00,
2013-03-14 21:09:00,45.9,17.0,30.07,WSW,252,0.0,4.0,31,0.00,,CLR,0.00,VWS V14.00,2013-03-15 01:09:00,
2013-03-14 21:14:00,45.6,17.5,30.07,WSW,250,2.0,8.0,32,0.00,,CLR,0.00,VWS V14.00,2013-03-15 01:14:00,
2013-03-14 21:19:00,45.5,17.4,30.07,West,260,1.0,8.0,32,0.00,,CLR,0.00,VWS V14.00,2013-03-15 01:19:00,
2013-03-14 21:24:00,45.2,17.1,30.07,West,266,3.0,8.0,32,0.00,,CLR,0.00,VWS V14.00,2013-03-15 01:24:00,
2013-03-14 21:29:00,45.1,17.0,30.07,WSW,240,5.0,5.0,32,0.00,,CLR,0.00,VWS V14.00,2013-03-15 01:29:00,
2013-03-14 21:34:00,45.0,16.9,30.07,WNW,283,0.0,7.0,32,0.00,,CLR,0.00,VWS V14.00,2013-03-15 01:34:00,
2013-03-14 21:39:00,44.8,16.8,30.07,WNW,283,0.0,7.0,32,0.00,,CLR,0.00,VWS V14.00,2013-03-15 01:39:00,
2013-03-14 21:44:00,44.6,17.3,30.08,WNW,294,0.0,7.0,33,0.00,,CLR,0.00,VWS V14.00,2013-03-15 01:44:00,
2013-03-14 21:49:00,44.5,17.2,30.08,WNW,287,0.0,7.0,33,0.00,,CLR,0.00,VWS V14.00,2013-03-15 01:49:00,
2013-03-14 21:54:00,44.3,17.0,30.08,WNW,287,0.0,7.0,33,0.00,,CLR,0.00,VWS V14.00,2013-03-15 01:54:00,
2013-03-14 21:59:00,44.1,16.9,30.08,WNW,287,0.0,0.0,33,0.00,,CLR,0.00,VWS V14.00,2013-03-15 01:59:00,
2013-03-14 22:04:00,43.9,16.7,30.08,WNW,284,0.0,1.0,33,0.00,,CLR,0.00,VWS V14.00,2013-03-15 02:04:00,
2013-03-14 22:09:00,43.6,17.1,30.08,WNW,285,0.0,2.0,34,0.00,,CLR,0.00,VWS V14.00,2013-03-15 02:09:00,
2013-03-14 22:14:00,43.2,17.4,30.08,WNW,285,0.0,2.0,35,0.00,,CLR,0.00,VWS V14.00,2013-03-15 02:14:00,
2013-03-14 22:19:00,42.8,17.1,30.08,WNW,300,1.0,4.0,35,0.00,,CLR,0.00,VWS V14.00,2013-03-15 02:19:00,
2013-03-14 22:24:00,42.5,17.4,30.08,WNW,290,1.0,4.0,36,0.00,,CLR,0.00,VWS V14.00,2013-03-15 02:24:00,
2013-03-14 22:29:00,42.3,17.9,30.09,WNW,288,0.0,2.0,37,0.00,,CLR,0.00,VWS V14.00,2013-03-15 02:29:00,
2013-03-14 22:34:00,42.1,18.3,30.09,WNW,292,0.0,2.0,38,0.00,,CLR,0.00,VWS V14.00,2013-03-15 02:34:00,
2013-03-14 22:39:00,41.9,18.8,30.09,WNW,286,0.0,2.0,39,0.00,,CLR,0.00,VWS V14.00,2013-03-15 02:39:00,
2013-03-14 22:44:00,41.6,19.1,30.09,WNW,284,0.0,3.0,40,0.00,,CLR,0.00,VWS V14.00,2013-03-15 02:44:00,
2013-03-14 22:49:00,41.4,19.5,30.09,WNW,296,1.0,3.0,41,0.00,,CLR,0.00,VWS V14.00,2013-03-15 02:49:00,
2013-03-14 22:54:00,41.3,20.0,30.09,WNW,291,0.0,3.0,42,0.00,,CLR,0.00,VWS V14.00,2013-03-15 02:54:00,
2013-03-14 22:59:00,41.2,19.9,30.09,WNW,288,0.0,2.0,42,0.00,,CLR,0.00,VWS V14.00,2013-03-15 02:59:00,
2013-03-14 23:04:00,41.2,19.9,30.09,WNW,288,0.0,2.0,42,0.00,,CLR,0.00,VWS V14.00,2013-03-15 03:04:00,
2013-03-14 23:09:00,41.2,19.9,30.09,WNW,288,0.0,2.0,42,0.00,,CLR,0.00,VWS V14.00,2013-03-15 03:09:00,
2013-03-14 23:14:00,41.1,20.3,30.10,WSW,240,2.0,2.0,43,0.00,,CLR,0.00,VWS V14.00,2013-03-15 03:14:00,
2013-03-14 23:19:00,41.0,20.8,30.10,WSW,252,0.0,4.0,44,0.00,,CLR,0.00,VWS V14.00,2013-03-15 03:19:00,
2013-03-14 23:24:00,40.8,20.6,30.10,West,262,0.0,5.0,44,0.00,,CLR,0.00,VWS V14.00,2013-03-15 03:24:00,
2013-03-14 23:29:00,40.5,20.3,30.09,WSW,256,4.0,4.0,44,0.00,,CLR,0.00,VWS V14.00,2013-03-15 03:29:00,
2013-03-14 23:34:00,40.5,20.9,30.09,West,274,2.0,5.0,45,0.00,,CLR,0.00,VWS V14.00,2013-03-15 03:34:00,
2013-03-14 23:39:00,40.5,20.9,30.09,West,275,1.0,5.0,45,0.00,,CLR,0.00,VWS V14.00,2013-03-15 03:39:00,
2013-03-14 23:44:00,40.2,21.1,30.08,West,273,0.0,5.0,46,0.00,,CLR,0.00,VWS V14.00,2013-03-15 03:44:00,
2013-03-14 23:49:00,39.8,20.7,30.08,West,273,0.0,5.0,46,0.00,,CLR,0.00,VWS V14.00,2013-03-15 03:49:00,
2013-03-14 23:54:00,39.4,20.4,30.08,NW,304,0.0,5.0,46,0.00,,CLR,0.00,VWS V14.00,2013-03-15 03:54:00,
2013-03-14 23:59:00,39.1,20.6,30.09,NNW,343,0.0,0.0,47,0.00,,CLR,0.00,VWS V14.00,2013-03-15 03:59:00,